FW6924 Weather Reports


Display with metric or nautical units.
time (UTC)temp
F
wind
direction
speed
MPH
gust
MPH
rain 1hr
in
rain 24hr
in
rain mn
in
humidity
%
barometer
mb
20260903015002 77 76 0.0 0.0 0.00 0.01 0.01 90 1012.6
20260903014004 77 76 0.0 5.0 0.00 0.01 0.01 90 1012.9
20260903013002 77 93 2.0 6.0 0.00 0.01 0.01 89 1012.6
20260903011002 77 98 3.0 8.0 0.00 0.01 0.01 89 1012.6
20260903010007 78 109 0.0 3.0 0.00 0.01 0.01 89 1012.7
20260903005002 78 40 2.0 7.0 0.00 0.01 0.01 88 1012.7
20260903004004 79 110 2.0 8.0 0.00 0.01 0.01 88 1012.2
20260903003002 79 98 1.0 4.0 0.00 0.01 0.01 88 1011.8
20260903000007 81 355 3.0 15.0 0.00 0.01 0.01 84 1012.2
20260902235002 82 342 6.0 18.0 0.00 0.04 0.01 82 1012.1
20260902234004 83 299 4.0 12.0 0.00 0.04 0.01 83 1011.5
20260902233002 83 288 4.0 10.0 0.00 0.04 0.01 83 1011.7
20260902231002 84 286 5.0 10.0 0.00 0.04 0.01 83 1011.5
20260902230007 85 292 5.0 11.0 0.00 0.04 0.01 83 1011.4
20260902225002 85 284 5.0 11.0 0.00 0.05 0.01 82 1011.4
20260902224004 85 259 4.0 9.0 0.00 0.05 0.01 81 1011.0
20260902223002 86 284 5.0 11.0 0.00 0.05 0.01 79 1011.1
20260902221002 87 271 6.0 11.0 0.00 0.05 0.01 78 1011.3
20260902220006 87 259 5.0 9.0 0.00 0.05 0.01 78 1011.1
20260902215002 87 288 5.0 8.0 0.00 0.05 0.01 79 1011.1
20260902214004 87 286 6.0 12.0 0.00 0.05 0.01 79 1011.1
20260902213002 87 279 4.0 9.0 0.00 0.05 0.01 78 1011.1
20260902212004 88 252 4.0 9.0 0.00 0.05 0.01 77 1011.1
20260902211002 89 286 6.0 9.0 0.00 0.05 0.01 73 1011.2
20260902210007 89 275 4.0 9.0 0.00 0.05 0.01 75 1011.2
20260902205002 88 269 3.0 6.0 0.00 0.05 0.01 76 1011.3
20260902203002 89 258 3.0 8.0 0.00 0.05 0.01 73 1011.3
20260902202002 90 240 1.0 4.0 0.00 0.05 0.01 68 1011.3
20260902201002 91 145 1.0 5.0 0.00 0.05 0.01 68 1011.3
20260902200004 90 210 2.0 7.0 0.00 0.05 0.01 68 1011.5
20260902194002 90 226 2.0 4.0 0.00 0.05 0.01 70 1011.9
20260902193004 88 242 3.0 7.0 0.00 0.05 0.01 72 1011.9
20260902192003 88 253 2.0 7.0 0.00 0.05 0.01 71 1012.0
20260902185001 89 104 1.0 5.0 0.00 0.05 0.01 68 1012.5
20260902184001 91 97 0.0 6.0 0.00 0.05 0.01 67 1012.7
20260902182004 90 96 1.0 6.0 0.00 0.05 0.01 68 1012.8
20260902181001 89 207 1.0 6.0 0.00 0.05 0.01 69 1013.1
20260902175001 89 110 0.0 3.0 0.00 0.05 0.01 71 1013.3
20260902174021 89 184 0.0 3.0 0.00 0.05 0.01 70 1013.4
20260902173001 88 80 0.0 2.0 0.00 0.05 0.01 71 1013.4
20260902172004 88 338 0.0 2.0 0.00 0.05 0.01 73 1013.6
20260902171001 89 355 2.0 5.0 0.00 0.05 0.01 70 1013.6
20260902170005 90 84 1.0 6.0 0.00 0.05 0.01 71 1013.7
20260902165001 89 107 2.0 4.0 0.00 0.05 0.01 72 1014.0
20260902162003 87 76 0.0 2.0 0.00 0.05 0.01 75 1014.2
20260902161001 87 323 2.0 4.0 0.00 0.05 0.01 72 1014.4
20260902160007 87 113 2.0 4.0 0.00 0.05 0.01 73 1014.4
20260902155001 88 85 1.0 4.0 0.00 0.05 0.01 74 1014.4
20260902154021 88 94 1.0 4.0 0.00 0.05 0.01 75 1014.4
20260902153001 85 86 0.0 4.0 0.00 0.05 0.01 78 1014.4
20260902152021 84 19 1.0 5.0 0.00 0.05 0.01 79 1014.5
20260902151001 84 5 0.0 3.0 0.00 0.05 0.01 80 1014.7
20260902150005 85 13 1.0 5.0 0.00 0.05 0.01 79 1014.7
20260902145001 85 39 0.0 4.0 0.00 0.05 0.01 82 1014.6
20260902144003 85 56 1.0 6.0 0.00 0.05 0.01 83 1014.7
20260902143001 84 81 1.0 5.0 0.00 0.05 0.01 82 1014.6
20260902142003 84 59 1.0 5.0 0.00 0.05 0.01 83 1014.4
20260902140006 83 81 2.0 5.0 0.00 0.05 0.01 85 1014.4
20260902135001 83 63 0.0 3.0 0.00 0.05 0.01 85 1014.4
20260902133000 82 57 0.0 4.0 0.00 0.05 0.01 88 1014.5
20260902132023 82 61 0.0 4.0 0.00 0.05 0.01 88 1014.5
20260902131000 81 87 1.0 3.0 0.00 0.05 0.01 90 1014.4
20260902130005 80 32 1.0 3.0 0.00 0.05 0.01 91 1014.3
20260902125001 79 64 0.0 3.0 0.00 0.05 0.01 92 1014.2
20260902124002 79 66 0.0 3.0 0.00 0.05 0.01 94 1014.3
20260902122002 77 57 0.0 2.0 0.00 0.05 0.01 96 1014.3
20260902115001 75 5 0.0 0.0 0.00 0.05 0.01 96 1014.3
20260902114003 75 5 0.0 0.0 0.01 0.05 0.01 95 1014.2
20260902113000 75 5 0.0 0.0 0.01 0.05 0.01 95 1014.1
20260902111001 75 5 0.0 0.0 0.01 0.05 0.01 95 1013.9
20260902110007 75 13 0.0 0.0 0.01 0.05 0.01 95 1013.9
20260902104002 75 9 0.0 0.0 0.00 0.04 0.00 95 1013.8
20260902103001 75 9 0.0 0.0 0.00 0.04 0.00 95 1013.6
20260902102003 75 360 0.0 0.0 0.00 0.04 0.00 95 1013.5
20260902101000 75 5 0.0 0.0 0.00 0.04 0.00 95 1013.5
20260902095002 75 5 0.0 0.0 0.00 0.05 0.00 95 1013.4
20260902094000 75 5 0.0 0.0 0.00 0.05 0.00 95 1013.3
20260902093002 75 5 0.0 0.0 0.00 0.05 0.00 95 1013.3
20260902092003 75 5 0.0 0.0 0.00 0.05 0.00 95 1013.4
20260902090003 75 5 0.0 0.0 0.00 0.05 0.00 95 1013.3
20260902085001 75 5 0.0 0.0 0.00 0.05 0.00 95 1013.2
20260902084001 75 5 0.0 0.0 0.00 0.05 0.00 94 1013.3
20260902082003 75 5 0.0 0.0 0.00 0.05 0.00 94 1013.3
20260902080004 75 5 0.0 0.0 0.00 0.05 0.00 94 1013.3
20260902075003 75 5 0.0 0.0 0.00 0.05 0.00 94 1013.2
20260902074000 75 5 0.0 0.0 0.00 0.05 0.00 94 1013.2
20260902071002 76 5 0.0 0.0 0.00 0.05 0.00 94 1013.2
20260902070003 76 5 0.0 0.0 0.00 0.05 0.00 94 1013.2
20260902064000 76 5 0.0 0.0 0.00 0.05 0.00 94 1013.5
20260902063000 76 5 0.0 0.0 0.00 0.05 0.00 94 1013.5
20260902062003 76 5 0.0 0.0 0.00 0.05 0.00 94 1013.5
20260902061000 76 5 0.0 0.0 0.00 0.05 0.00 94 1013.5
20260902055000 76 9 0.0 0.0 0.00 0.05 0.00 94 1013.7
20260902054002 76 360 0.0 3.0 0.00 0.05 0.00 94 1013.7
20260902053000 76 9 0.0 0.0 0.00 0.05 0.00 94 1013.8
20260902051000 76 355 2.0 4.0 0.00 0.05 0.00 94 1013.9
20260902050008 76 5 1.0 5.0 0.00 0.05 0.00 94 1014.0
20260902045002 76 348 2.0 5.0 0.00 0.05 0.00 94 1014.0
20260902044004 76 360 1.0 3.0 0.00 0.05 0.00 94 1014.1
20260902043002 76 347 2.0 4.0 0.00 0.05 0.00 94 1014.1
20260902042004 76 360 1.0 4.0 0.00 0.05 0.00 94 1014.2
20260902041002 76 355 1.0 4.0 0.00 0.05 0.00 94 1014.2
20260902040008 76 17 0.0 0.0 0.00 0.05 0.00 94 1014.2
20260902034004 76 319 0.0 0.0 0.00 0.05 0.05 93 1014.3
20260902033002 76 347 0.0 0.0 0.00 0.05 0.05 93 1014.4
20260902032004 77 99 0.0 0.0 0.00 0.05 0.05 93 1014.4
20260902031002 77 99 0.0 0.0 0.00 0.05 0.05 93 1014.6
20260902030006 77 99 0.0 0.0 0.00 0.05 0.05 93 1014.7
20260902025002 77 99 0.0 0.0 0.00 0.05 0.05 93 1014.7
20260902024004 77 99 0.0 0.0 0.00 0.05 0.05 93 1014.6
20260902023002 77 99 0.0 0.0 0.00 0.05 0.05 93 1014.6
20260902022004 77 99 0.0 0.0 0.00 0.05 0.05 93 1014.6
20260902020007 77 99 0.0 0.0 0.00 0.05 0.05 93 1014.4